GPS BIIR-4 (PRN 20)

Last updated on Oct. 21, 2020, 5:58 a.m. UTC

1 26360U 00025A   20294.93971784  .00000010  00000-0  00000-0 0  9990
2 26360  53.6085 103.9486 0056695 158.7924  79.2606  2.00564363149849
UTC
Height (km)
Latitude
Longitude
Inclination
Orbital Period
UTC large
Height (km)
Speed (km/s)
/
Latitude / Longitude
Inclination (degrees)
Orbital Period (minutes)
Azimuth
Elevation
Range (km)
Doppler Factor
iOS Compass Heading
iOS Angle

Next 30 passes for location: Hong Kong

Rise time Rise Azimuth (degrees) Set time Set Azimuth (degrees) Duration Max altitude (degrees)

No matching passes for this satellites